Regional Weather Roundup
Issued by NWS

Home | Current Version | Previous Version | Text Only | Print | Product List | Glossary Off
Versions: 1 2 3 4 5 6 7 8 9 10 11 12 13 14 15 16 17 18 19 20 21 22 23 24 25 26 27 28 29 30 31 32 33 34 35 36 37 38 39 40 41 42 43 44 45 46 47 48 49 50

000
ASUS43 KMKX 242259
RWRWI

WISCONSIN REGIONAL WEATHER ROUNDUP
NATIONAL WEATHER SERVICE MILWAUKEE/SULLIVAN WI
500 PM CST SAT FEB 24 2018

NOTE: "FAIR" INDICATES FEW OR NO CLOUDS BELOW 12,000 FEET WITH NO
SIGNIFICANT WEATHER AND/OR OBSTRUCTIONS TO VISIBILITY.

WIZ001-002-006>008-014>016-023>028-250000-
NORTHWEST WISCONSIN

CITY           SKY/WX    TMP DP  RH WIND       PRES   REMARKS
SUPERIOR ARPT  CLOUDY    24  20  83 E13G21    29.88F WCI  13
ASHLAND        CLOUDY    23  19  85 NE14      29.88F WCI  11
HAYWARD        CLOUDY    33  21  61 E10       29.79F WCI  25
SIREN          FLURRIES  31  21  66 E6        29.79F WCI  25
CUMBERLAND     LGT SNOW  30  23  74 E14       29.74F WCI  20
RICE LAKE      CLOUDY    32  25  74 E10       29.77F WCI  24
CHETEK         LGT SNOW  32  24  72 E10       29.76F WCI  24
LADYSMITH      CLOUDY    34  24  67 E9        29.80F WCI  27
EAU CLAIRE     NOT AVBL
MENOMONIE      LGT SNOW  31  28  87 NE13      29.68F WCI  21
NEW RICHMOND   LGT SNOW  29  25  83 E15G22    29.69F VSB 3/4 WCI  18
OSCEOLA        SNOW      28  26  90 NE10      29.74F VSB 1/2 WCI  19
$$

WIZ003>005-009-010-017-018-250000-
NORTH CENTRAL WISCONSIN

CITY           SKY/WX    TMP DP  RH WIND       PRES   REMARKS
MANITOWISH WTR CLOUDY    32  23  69 E5        29.84F WCI  28
ARBOR VITAE    CLOUDY    37  26  67 E9        29.84F WCI  30
WOODRUFF       CLOUDY    37  26  67 E9        29.84F WCI  30
RHINELANDER    CLOUDY    33  23  66 E12G22    29.85F WCI  24
EAGLE RIVER    MOCLDY    32  20  61 SE9       29.86F WCI  25
LAND O LAKES   CLOUDY    33  22  63 E6        29.88F WCI  28
PHILLIPS       CLOUDY    33  24  70 E13G20    29.79F WCI  23
TOMAHAWK       CLOUDY    32  23  70 E6        29.85F WCI  26
MEDFORD        CLOUDY    31  23  71 E14G20    29.80F WCI  21
MERRILL        CLOUDY    32  24  71 E9        29.85F WCI  25
$$

WIZ029-030-035-036-043>047-250000-
CENTRAL WISCONSIN

CITY           SKY/WX    TMP DP  RH WIND       PRES   REMARKS
WAUSAU         CLOUDY    32  25  75 E17G25    29.81F WCI  21
MOSINEE        CLOUDY    32  27  80 E17G25    29.82F WCI  21
MARSHFIELD     CLOUDY    33  26  75 E21G30    29.74F WCI  21
STEVENS POINT  CLOUDY    31  26  81 E16G25    29.86F WCI  20
WAUPACA        CLOUDY    36  28  73 E16G22    29.89F WCI  26
WAUTOMA        CLOUDY    33  27  78 E15       29.83F WCI  23
WISC RAPIDS    CLOUDY    33  25  72 E17G24    29.79F WCI  22
CAMP DOUGLAS   CLOUDY    34  29  84 E17G24    29.74F WCI  23
$$

WIZ011>013-019>022-031-037>040-048>050-250000-
NORTHEAST WISCONSIN

CITY           SKY/WX    TMP DP  RH WIND       PRES   REMARKS
ANTIGO         CLOUDY    30  24  78 SE15      29.88S WCI  19
SHAWANO        CLOUDY    34  27  75 E13       29.92F WCI  25
OCONTO         CLOUDY    32  25  77 E8        29.96F WCI  25
STURGEON BAY   CLOUDY    32  26  78 E8        29.96F WCI  25
GREEN BAY      CLOUDY    33  25  72 E12       29.92F WCI  24
MANITOWOC      CLOUDY    33  27  78 NE10      29.92F WCI  25
APPLETON       CLOUDY    34  25  69 E10G17    29.88F WCI  26
CLINTONVILLE   CLOUDY    33  26  75 E10       29.90F WCI  24
OSHKOSH        CLOUDY    33  27  78 E12       29.86F WCI  24
$$

WIZ032>034-041-042-053>061-250000-
SOUTHWEST WISCONSIN

CITY           SKY/WX    TMP DP  RH WIND       PRES   REMARKS
LA CROSSE      LGT RAIN  35  30  82 E8        29.67F WCI  29
SPARTA         CLOUDY    34  28  79 E18G25    29.74F WCI  23
VIROQUA        CLOUDY    32  32  99 E21       29.68F WCI  20
BOSCOBEL       MIX PCPN  35  33  92 E8        29.70F FOG     WCI  29
PRAIRIE DU CHI CLOUDY    34  32  94 E13G18    29.68F FOG     WCI  25
PLATTEVILLE    CLOUDY    34  34 100 E20G26    29.69F VSB 1   WCI  23
$$

WIZ056-057-062-063-064-067-068-250000-
SOUTH CENTRAL WISCONSIN

CITY           SKY/WX    TMP DP  RH WIND       PRES   REMARKS
REEDSBURG      CLOUDY    33  31  94 E9G17     29.75F WCI  25
BARABOO/DELLS  CLOUDY    33  30  87 E16       29.77F FOG     WCI  23
LONE ROCK      LGT RAIN  34  34 100 E22       29.73F VSB 3/4 WCI  22
MINERAL POINT  LGT RAIN  34  34 100 E13G23    29.71F WCI  25
MADISON        DRIZZLE   34  31  88 E16G25    29.79F FOG     WCI  24
MIDDLETON      CLOUDY    35  32  88 E20G25    29.80F WCI  24
WATERTOWN      CLOUDY    34  32  91 E13G21    29.83F WCI  25
MONROE         LGT RAIN  34  32  93 NE14G23   29.75F WCI  24
JANESVILLE     CLOUDY    36  36 100 E14       29.78F FOG     WCI  27
$$

WIZ051-052-058>065-066-070>072-250000-
SOUTHEAST WISCONSIN

CITY           SKY/WX    TMP DP  RH WIND       PRES   REMARKS
MILWAUKEE      CLOUDY    37  33  85 E14       29.87F WCI  28
WAUKESHA       CLOUDY    34  30  86 E15G22    29.87F WCI  24
MILWAUKEE/TIMM CLOUDY    36  28  75 E12       29.88F WCI  27
RACINE         CLOUDY    37  34  89 E12       29.88F FOG     WCI  29
BURLINGTON     CLOUDY    35  32  88 E13       29.85F WCI  27
KENOSHA        LGT RAIN  37  33  85 E15       29.85F FOG     WCI  28
FOND DU LAC    CLOUDY    35  27  72 E16       29.86F WCI  25
SHEBOYGAN      CLOUDY    33  30  88 E15       29.91F WCI  23
WEST BEND      CLOUDY    34  32  93 E9G16     29.88F WCI  26
JUNEAU         CLOUDY    33  30  86 E15       29.85F WCI  23
$$

LSZ147-162-250000-
LAKE SUPERIOR

STATION/POSITION TIME  TEMP    WIND        PRES    WAVE
                       AIR SEA DIR/SP/G            HT/PER
                 (UTC) (F)     (DEG/KT/KT) (MB)    (FT/S)
DEVILS ISLAND    2200   23      60/ 16/ 18 1015.4F
SAXON HARBOR     2230   23      50/ 15/ 17 1012.2F
$$

LMZ867-665-643>646-250000-
LAKE MICHIGAN

STATION/POSITION TIME  TEMP    WIND        PRES    WAVE
                       AIR SEA DIR/SP/G            HT/PER
                 (UTC) (F)     (DEG/KT/KT) (MB)    (FT/S)
NORTHPORT PIER   2240   32                 1015.2F
KEWAUNEE LAKESHO 2230   33      40/ 11/ 15 1013.6F
SHEBOYGAN LAKESH 2200   34      50/ 11/ 12 1014.7F
PORT WASHINGTON  2230   36      60/  8/ 11 1014.2F
KENOSHA   LAKESH 2200   35      90/  7/  8 1013.2
$$

TC  - TEMPERATURE IN CELSIUS
VSB - VISIBILITY IN STATUTE MILES
WCI - WIND CHILL INDEX
HX  - HEAT INDEX





USA.gov is the U.S. government's official web portal to all federal, state and local government web resources and services.